Participated 1 time
in 1950
Antoine Frankowski, Poland
Tour de France 2026 starts from Barcelona, Spain in

Stats and Facts from
Tour de France.

2026   2025   2024   2023  2022  2021  2020  2019   2018  2017   2016   2015  2014  2013   2012   2011  2010   2009   2008   2007   2006   2005   2004   2003   2002   2001   2000   1999   1998   1997  1996   1995   1994   1993   1992  1991   1990   1989   1988   1987   1986   1985   1984   1983  1982  1981   1980   1979  1978  1977   1976  1975  1974  1973   1972   1971   1970  1969   1968   1967   1966   1965  1964  1963   1962   1961   1960   1959   1958   1957  1956   1955   1954   1953   1952  1951  1950  1949   1948  1947  1939   1938   1937   1936   1935   1934   1933  1932   1931   1930  1929   1928   1927   1926  1925  1924  1923   1922   1921   1920   1919  1914   1913   1912   1911   1910  1909   1908   1907   1906  1905  1904   1903 

Tourstats
Sitemap

After stage 21 - 2025:
 16451 starters.
  5464 different riders.
  689 teams.
  2398 stages.
  470 restdays.
  466506.50 km.
  5925 abandoned riders.

Click map for 2012 route.
Facts from Tour de France 2012
  |   Stages.  |   Stage winners.  |   Days in jerseys.  |   Teams.  |   All riders.  |   All riders by age.  |   All riders from.  |  

  |   Rookies.  |   Withdrawls.  |   Average speed.  |   GC.  |   Polka  |   Green  |   White  |   Summits. (In tour)  |   Miscellaneous.  |  

Stage 12 on July 13th. 2012
Pick a stage:  Pro  1  2  3  4  5  6  7  8  9  10  11  12  13  14  15  16  17  18  19  20  

After stage 12:    Bradley Wiggins    Fredrik Kessiakoff    Peter Sagan    Tejay Van Garderen  
  Saint-Jean-de-MaurienneAnnonay-Davézieux | Dist: 226.00km. | Winner: David Millar

Podium
1  Col du Grand Cucheron Robert Kišerlovskiafter34.00 km.

1  Col du Granier Robert Kišerlovskiafter80.50 km.

3  Côte de Ardoix Robert Kišerlovskiafter207.50 km.


Average speed for all riders in stage:  38,472 km./hr.

1
 David Millar  Garmin-Sharp-Barracuda05h 42' 46"=39,560  km/h

2
 Jean-Christophe Peraud  AG2R La Mondiale05h 42' 46"=39,560  km/h

3
 Egoi Martínez  Euskaltel-Euskadi05h 42' 51"+  00:00:05 =39,551  km/h

4  Cyril Gautier  Europcar05h 42' 51"+  00:00:05 =39,551  km/h

5  Robert Kišerlovski  Astana Pro Team05h 42' 51"+  00:00:05 =39,551  km/h

6  Peter Sagan  Liquigas-Cannondale05h 50' 39"+  00:07:53 =38,671  km/h

7  Matthew Goss  Orica-GreenEDGE05h 50' 39"+  00:07:53 =38,671  km/h

8  Sébastien Hinault  AG2R La Mondiale05h 50' 40"+  00:07:54 =38,669  km/h

9  Cadel Evans  BMC05h 50' 40"+  00:07:54 =38,669  km/h

10  Luca Paolini  Katusha05h 50' 40"+  00:07:54 =38,669  km/h

11  Julien Simon  Saur-Sojasun05h 50' 40"+  00:07:54 =38,669  km/h

12  Bradley Wiggins  Sky Procycling05h 50' 40"+  00:07:54 =38,669  km/h

13  Marco Marcato  Vacansoleil-DCM05h 50' 40"+  00:07:54 =38,669  km/h

14  Nicolas Roche  AG2R La Mondiale05h 50' 40"+  00:07:54 =38,669  km/h

15  Chris Froome  Sky Procycling05h 50' 40"+  00:07:54 =38,669  km/h

16  Janez Brajkovič  Astana Pro Team05h 50' 40"+  00:07:54 =38,669  km/h

17  Vincenzo Nibali  Liquigas-Cannondale05h 50' 40"+  00:07:54 =38,669  km/h

18  Jurgen Van Den Broeck  Lotto-Belisol05h 50' 40"+  00:07:54 =38,669  km/h

19  Daryl Impey  Orica-GreenEDGE05h 50' 40"+  00:07:54 =38,669  km/h

20  Jelle Vanendert  Lotto-Belisol05h 50' 40"+  00:07:54 =38,669  km/h

21  Tejay Van Garderen  BMC05h 50' 40"+  00:07:54 =38,669  km/h

22  Michele Scarponi  Lampre-ISD05h 50' 40"+  00:07:54 =38,669  km/h

23  Pierre Rolland  Europcar05h 50' 40"+  00:07:54 =38,669  km/h

24  Philippe Gilbert  BMC05h 50' 40"+  00:07:54 =38,669  km/h

25  Koen De Kort  Argos–Shimano05h 50' 40"+  00:07:54 =38,669  km/h

26  Dominik Nerz  Liquigas-Cannondale05h 50' 40"+  00:07:54 =38,669  km/h

27  Jürgen Roelandts  Lotto-Belisol05h 50' 40"+  00:07:54 =38,669  km/h

28  Jens Voigt  Radioshack–Nissan05h 50' 40"+  00:07:54 =38,669  km/h

29  Chris Anker Sørensen  Saxo Bank-Tinkoff Bank05h 50' 40"+  00:07:54 =38,669  km/h

30  Christopher Horner  Radioshack–Nissan05h 50' 40"+  00:07:54 =38,669  km/h

31  Andréas  Klöden  Radioshack–Nissan05h 50' 40"+  00:07:54 =38,669  km/h

32  Maxime Monfort  Radioshack–Nissan05h 50' 40"+  00:07:54 =38,669  km/h

33  Juan José Cobo  Movistar05h 50' 40"+  00:07:54 =38,669  km/h

34  Haimar  Zubeldía  Radioshack–Nissan05h 50' 40"+  00:07:54 =38,669  km/h

35  Peter Velits  Omega Pharma – Quick Step05h 50' 40"+  00:07:54 =38,669  km/h

36  Fränk Schleck  Radioshack–Nissan05h 50' 40"+  00:07:54 =38,669  km/h

37  Eduard Vorganov  Katusha05h 50' 40"+  00:07:54 =38,669  km/h

38  Rui Costa  Movistar05h 50' 40"+  00:07:54 =38,669  km/h

39  Jérôme Coppel  Saur-Sojasun05h 50' 40"+  00:07:54 =38,669  km/h

40  Thibaut Pinot  FDJ – Big Mat05h 50' 40"+  00:07:54 =38,669  km/h

41  Nick Nuyens  Saxo Bank-Tinkoff Bank05h 50' 40"+  00:07:54 =38,669  km/h

42  Jimmy Engoulvent  Saur-Sojasun05h 50' 47"+  00:08:01 =38,656  km/h

43  Michael Rogers  Sky Procycling05h 50' 47"+  00:08:01 =38,656  km/h

44  Johnny Hoogerland  Vacansoleil-DCM05h 51' 03"+  00:08:17 =38,627  km/h

45  Andriy Grivko  Astana Pro Team05h 51' 03"+  00:08:17 =38,627  km/h

46  Laurens Ten Dam  Rabobank05h 51' 03"+  00:08:17 =38,627  km/h

47  Pierrick  Fédrigo  FDJ – Big Mat05h 51' 03"+  00:08:17 =38,627  km/h

48  Guillaume Levarlet  Saur-Sojasun05h 51' 17"+  00:08:31 =38,601  km/h

49  Simon Gerrans  Orica-GreenEDGE05h 51' 17"+  00:08:31 =38,601  km/h

50  Giampaolo Caruso  Katusha05h 51' 17"+  00:08:31 =38,601  km/h

51  Lars Bak  Lotto-Belisol05h 51' 17"+  00:08:31 =38,601  km/h

52  Alejandro Valverde  Movistar05h 51' 25"+  00:08:39 =38,587  km/h

53  Maxime Bouet  AG2R La Mondiale05h 51' 25"+  00:08:39 =38,587  km/h

54  Christophe Riblon  AG2R La Mondiale05h 51' 25"+  00:08:39 =38,587  km/h

55  Mikaël Cherel  AG2R La Mondiale05h 51' 25"+  00:08:39 =38,587  km/h

56  Edvald Boasson Hagen  Sky Procycling05h 51' 40"+  00:08:54 =38,559  km/h

57  George Hincapie  BMC05h 51' 40"+  00:08:54 =38,559  km/h

58  Denis Menchov  Katusha05h 51' 41"+  00:08:55 =38,557  km/h

59  Samuel Dumoulin  Cofidis Le Credit En Ligne05h 51' 41"+  00:08:55 =38,557  km/h

60  Sébastien Minard  AG2R La Mondiale05h 51' 41"+  00:08:55 =38,557  km/h

61  Kevin De Weert  Omega Pharma – Quick Step05h 51' 41"+  00:08:55 =38,557  km/h

62  Tony Gallopin  Radioshack–Nissan05h 51' 41"+  00:08:55 =38,557  km/h

63  Baden Cooke  Orica-GreenEDGE05h 51' 43"+  00:08:57 =38,554  km/h

64  Levi Leipheimer  Omega Pharma – Quick Step05h 51' 54"+  00:09:08 =38,534  km/h

65  Kris Boeckmans  Vacansoleil-DCM05h 51' 54"+  00:09:08 =38,534  km/h

66  Fabrice Jeandesboz  Saur-Sojasun05h 51' 54"+  00:09:08 =38,534  km/h

67  Roy Curvers  Argos–Shimano05h 51' 54"+  00:09:08 =38,534  km/h

68  Bert Grabsch  Omega Pharma – Quick Step05h 51' 54"+  00:09:08 =38,534  km/h

69  Sandy Casar  FDJ – Big Mat05h 51' 54"+  00:09:08 =38,534  km/h

70  Matthieu Sprick  Argos–Shimano05h 51' 54"+  00:09:08 =38,534  km/h

71  Vladimir Karpets  Movistar05h 51' 54"+  00:09:08 =38,534  km/h

72  Jorge Azanza  Euskaltel-Euskadi05h 51' 54"+  00:09:08 =38,534  km/h

73  Michael Schär  BMC05h 51' 54"+  00:09:08 =38,534  km/h

74  Yann Huguet  Argos–Shimano05h 51' 54"+  00:09:08 =38,534  km/h

75  Simone Stortoni  Lampre-ISD05h 51' 54"+  00:09:08 =38,534  km/h

76  Brett Lancaster  Orica-GreenEDGE05h 52' 24"+  00:09:38 =38,479  km/h

77  Daniel Oss  Liquigas-Cannondale05h 52' 29"+  00:09:43 =38,470  km/h

78  Yaroslav Popovych  Radioshack–Nissan05h 52' 35"+  00:09:49 =38,459  km/h

79  Fredrik Kessiakoff  Astana Pro Team05h 52' 35"+  00:09:49 =38,459  km/h

80  Dimitiri Fofonov  Astana Pro Team05h 52' 35"+  00:09:49 =38,459  km/h

81  Adam Hansen  Lotto-Belisol05h 52' 35"+  00:09:49 =38,459  km/h

82  Julien Fouchard  Cofidis Le Credit En Ligne05h 53' 01"+  00:10:15 =38,412  km/h

83  Francis De Greef  Lotto-Belisol05h 53' 01"+  00:10:15 =38,412  km/h

84  Stuart O'Grady  Orica-GreenEDGE05h 53' 01"+  00:10:15 =38,412  km/h

85  Sylvain Chavanel  Omega Pharma – Quick Step05h 53' 01"+  00:10:15 =38,412  km/h

86  Bram Tankink  Rabobank05h 53' 01"+  00:10:15 =38,412  km/h

87  Marcus Burghardt  BMC05h 53' 01"+  00:10:15 =38,412  km/h

88  Danilo Hondo  Lampre-ISD05h 53' 01"+  00:10:15 =38,412  km/h

89  Martin Velits  Omega Pharma – Quick Step05h 53' 01"+  00:10:15 =38,412  km/h

90  Stephen Cummings  BMC05h 53' 01"+  00:10:15 =38,412  km/h

91  Dan Martin  Garmin-Sharp-Barracuda05h 53' 01"+  00:10:15 =38,412  km/h

92  Romain Zingle  Cofidis Le Credit En Ligne05h 53' 01"+  00:10:15 =38,412  km/h

93  Pieter Weening  Orica-GreenEDGE05h 53' 01"+  00:10:15 =38,412  km/h

94  Manuel Quinziato  BMC05h 53' 01"+  00:10:15 =38,412  km/h

95  Amaël Moinard  BMC05h 53' 01"+  00:10:15 =38,412  km/h

96  Maxim Iglinskiy  Astana Pro Team05h 53' 01"+  00:10:15 =38,412  km/h

97  Yauheni Hutarovich  FDJ – Big Mat05h 53' 01"+  00:10:15 =38,412  km/h

98  Marco Marzano  Lampre-ISD05h 53' 01"+  00:10:15 =38,412  km/h

99  Joan Horrach  Katusha05h 53' 01"+  00:10:15 =38,412  km/h

100  Yukiya  Arashiro  Europcar05h 53' 01"+  00:10:15 =38,412  km/h

101  Yury  Trofimov  Katusha05h 53' 01"+  00:10:15 =38,412  km/h

102  Vladimir Gusev  Katusha05h 53' 01"+  00:10:15 =38,412  km/h

103  Cédric Pineau  FDJ – Big Mat05h 53' 01"+  00:10:15 =38,412  km/h

104  Sebastian Langeveld  Orica-GreenEDGE05h 53' 01"+  00:10:15 =38,412  km/h

105  Jean-Marc Marino  Saur-Sojasun05h 53' 06"+  00:10:20 =38,403  km/h

106  Cyril Lemoine  Saur-Sojasun05h 53' 06"+  00:10:20 =38,403  km/h

107  Christian Knees  Sky Procycling05h 53' 22"+  00:10:36 =38,374  km/h

108  Patrick Gretsch  Argos–Shimano05h 53' 22"+  00:10:36 =38,374  km/h

109  Kristjan Koren  Liquigas-Cannondale05h 53' 22"+  00:10:36 =38,374  km/h

110  Sylwester Szmyd  Liquigas-Cannondale05h 53' 22"+  00:10:36 =38,374  km/h

111  Aliaksandr Kuchynski  Katusha05h 53' 22"+  00:10:36 =38,374  km/h

112  Vincent Jérôme  Europcar05h 53' 22"+  00:10:36 =38,374  km/h

113  Jonathan Cantwell  Saxo Bank-Tinkoff Bank05h 53' 22"+  00:10:36 =38,374  km/h

114  Bernhard Eisel  Sky Procycling05h 54' 45"+  00:11:59 =38,224  km/h

115  Albert Timmer  Argos–Shimano05h 54' 45"+  00:11:59 =38,224  km/h

116  Jérémy Roy  FDJ – Big Mat05h 54' 45"+  00:11:59 =38,224  km/h

117  Kenny van Hummel  Vacansoleil-DCM05h 54' 45"+  00:11:59 =38,224  km/h

118  Anthony Roux  FDJ – Big Mat05h 54' 45"+  00:11:59 =38,224  km/h

119  Nicolas Edet  Cofidis Le Credit En Ligne05h 54' 45"+  00:11:59 =38,224  km/h

120  Rafael Valls Ferri  Vacansoleil-DCM05h 54' 45"+  00:11:59 =38,224  km/h

121  Ruben Perez  Euskaltel-Euskadi05h 54' 45"+  00:11:59 =38,224  km/h

122  Michael Albasini  Orica-GreenEDGE05h 54' 45"+  00:11:59 =38,224  km/h

123  Giovanni Bernaudeau  Europcar05h 54' 45"+  00:11:59 =38,224  km/h

124  Blel Kadri  AG2R La Mondiale05h 54' 45"+  00:11:59 =38,224  km/h

125  Luis Angel Mate  Cofidis Le Credit En Ligne05h 54' 45"+  00:11:59 =38,224  km/h

126  André Greipel  Lotto-Belisol05h 54' 45"+  00:11:59 =38,224  km/h

127  Marcel Sieberg  Lotto-Belisol05h 54' 45"+  00:11:59 =38,224  km/h

128  Rubén Plaza  Movistar05h 54' 45"+  00:11:59 =38,224  km/h

129  Ivan Basso  Liquigas-Cannondale05h 54' 45"+  00:11:59 =38,224  km/h

130  Federico Canuti  Liquigas-Cannondale05h 54' 45"+  00:11:59 =38,224  km/h

131  Alexandre Vinokourov  Astana Pro Team05h 54' 45"+  00:11:59 =38,224  km/h

132  Tyler Farrar  Garmin-Sharp-Barracuda05h 54' 45"+  00:11:59 =38,224  km/h

133  Nicki Sørensen  Saxo Bank-Tinkoff Bank05h 54' 45"+  00:11:59 =38,224  km/h

134  Anders Lund  Saxo Bank-Tinkoff Bank05h 54' 45"+  00:11:59 =38,224  km/h

135  Rein Taaramäe  Cofidis Le Credit En Ligne05h 54' 45"+  00:11:59 =38,224  km/h

136  Christian Vandevelde  Garmin-Sharp-Barracuda05h 54' 45"+  00:11:59 =38,224  km/h

137  Andrey Kashechkin  Astana Pro Team05h 54' 45"+  00:11:59 =38,224  km/h

138  Juan José Haedo  Saxo Bank-Tinkoff Bank05h 54' 45"+  00:11:59 =38,224  km/h

139  Sérgio Paulinho  Saxo Bank-Tinkoff Bank05h 54' 45"+  00:11:59 =38,224  km/h

140  Gorka Izagirre  Euskaltel-Euskadi05h 54' 45"+  00:11:59 =38,224  km/h

141  Steven Kruijswijk  Rabobank05h 54' 45"+  00:11:59 =38,224  km/h

142  David Zabriskie  Garmin-Sharp-Barracuda05h 54' 45"+  00:11:59 =38,224  km/h

143  Matthieu Ladagnous  FDJ – Big Mat05h 54' 45"+  00:11:59 =38,224  km/h

144  Jérôme Pineau  Omega Pharma – Quick Step05h 54' 45"+  00:11:59 =38,224  km/h

145  Gregory Henderson  Lotto-Belisol05h 54' 45"+  00:11:59 =38,224  km/h

146  Johan Vansummeren  Garmin-Sharp-Barracuda05h 54' 45"+  00:11:59 =38,224  km/h

147  Arthur Vichot  FDJ – Big Mat05h 54' 45"+  00:11:59 =38,224  km/h

148  Jan Ghyselinck  Cofidis Le Credit En Ligne05h 54' 45"+  00:11:59 =38,224  km/h

149  Pablo Urtasun  Euskaltel-Euskadi05h 54' 45"+  00:11:59 =38,224  km/h

150  Dries Devenyns  Omega Pharma – Quick Step05h 54' 45"+  00:11:59 =38,224  km/h

151  Vasil Kiryienka  Movistar05h 54' 45"+  00:11:59 =38,224  km/h

152  Alessandro Vanotti  Liquigas-Cannondale05h 54' 45"+  00:11:59 =38,224  km/h

153  Davide Malacarne  Europcar05h 54' 45"+  00:11:59 =38,224  km/h

154  Yohann Gène  Europcar05h 54' 45"+  00:11:59 =38,224  km/h

155  Brice Feillu  Saur-Sojasun05h 54' 45"+  00:11:59 =38,224  km/h

156  Luis León Sánchez  Rabobank05h 54' 45"+  00:11:59 =38,224  km/h

157  Thomas  Voeckler  Europcar05h 54' 45"+  00:11:59 =38,224  km/h

158  Borut Božič  Astana Pro Team05h 54' 45"+  00:11:59 =38,224  km/h

159  Grega Bole  Lampre-ISD05h 54' 45"+  00:11:59 =38,224  km/h

160  Richie Porte  Sky Procycling05h 54' 45"+  00:11:59 =38,224  km/h

161  Mark Cavendish  Sky Procycling05h 54' 45"+  00:11:59 =38,224  km/h

162  Michael Mørkøv  Saxo Bank-Tinkoff Bank05h 54' 45"+  00:11:59 =38,224  km/h

163  Karsten Kroon  Saxo Bank-Tinkoff Bank05h 54' 45"+  00:11:59 =38,224  km/h

164  Christophe Kern  Europcar06h 02' 01"+  00:19:15 =37,457  km/h


Withdrawls: 3
 RiderTeamReason
151   Robert Gesink RabobankDid not start
88   David Moncoutié Cofidis Le Credit En LigneDid not finish
219   Tom Veelers Argos–ShimanoDid not finish
Todays birthdays.

1884 • Vincenzo Borgarello
1889 • Emile Bonnefoi
1889 • Auguste Denizot
1890 • Maurice Petit
1904 • Pierino Ferioli
1905 • Vincent Carrara
1910 • Antoon Van Schendel
1925 • Georges Meunier
1945 • Gérard Besnard
1950 • Wim Kelleners
1960 • Ivan Ivanov
1960 • Pierre-Henri Menthéour
1962 • Giovanni Bottoia
1964 • Flavio Giupponi
1974 • Benoit Salmon
1977 • Iñigo Landaluze
1977 • Svein Tuft
1979 • Rubens Bertogliati
1985 • Matthew Busche

 

Optimized for Chrome - Edge
and Opera browsers.